Zurück zum Katalog

QIANFAN-129

AktivKommunikationPO
NORAD 69075·PAYLOAD·🇨🇳 China

Gestartet May 12, 2026 von Taiyuan Satellite Launch Center

Loading…

Nächste Überflüge (nächste 24 Stunden)

TLE

AktuellSource: Space-Track

Epoche: Sep 14, 2026, 13:35 UTC

1 69075U 26104C   26257.56608003  .00000115  00000-0  15940-3 0  9999
2 69075  88.9910 332.3176 0002283 109.8360 250.3038 13.51022880 17246

Verfolge QIANFAN-129 in Echtzeit mit AllMySat

Download on the App Store